Theta_e
314 315 316 316 317 318 319 321 322 320 316 315 317 318 324 331 332 333 333 333 334 335 335 336 336 335 334 333 331 330 326 320 317 318 320 321 323 324 321 321 320 317 318 318 318 321 322 323 323 323 323 326 332 335 330 327 325 326 329 327 325 327 325 323 321 321 320 320 319 320 322 323 323 321 321 321 321 324 324 326 330 330 330 334 337 337 336 336
314 315 317 316 317 318 319 321 322 320 315 314 316 317 322 329 332 333 333 333 333 334 335 335 335 334 333 332 329 329 324 319 318 319 320 321 321 323 321 320 318 317 319 322 321 322 324 325 325 324 326 330 332 333 331 328 325 325 329 328 326 325 321 320 318 318 319 319 318 319 320 322 322 322 321 322 322 323 324 326 329 331 331 331 336 337 336 336
315 316 317 316 317 319 320 321 322 319 315 314 315 316 320 328 332 333 334 333 333 333 334 334 334 334 333 330 328 327 322 318 320 319 321 321 320 321 321 319 318 318 321 324 322 322 325 325 325 326 328 329 330 331 329 327 326 323 325 328 327 323 319 318 317 316 317 317 318 318 317 319 321 321 321 322 322 323 323 325 327 329 331 331 335 338 336 336
315 316 317 316 317 320 320 321 321 319 316 314 315 315 319 326 330 333 334 334 333 332 333 333 333 333 332 329 326 324 319 320 321 320 322 322 320 320 319 318 318 318 320 323 323 322 324 324 327 330 331 331 330 329 327 326 326 323 323 326 324 320 319 317 315 315 315 316 317 317 317 317 318 319 321 321 321 323 322 322 325 326 330 331 334 338 336 336
315 315 316 317 319 321 321 321 320 318 316 314 314 315 321 326 329 333 334 333 333 332 333 333 333 332 330 326 324 321 321 327 326 321 322 322 320 320 318 317 317 318 319 321 322 322 324 325 326 330 330 332 333 330 327 325 325 324 324 323 320 319 318 315 314 314 314 315 316 317 317 317 317 317 319 320 321 322 320 321 322 323 330 330 333 338 336 336
314 314 315 317 319 322 321 321 319 317 316 315 315 315 321 327 328 332 333 332 332 332 332 332 332 331 327 323 322 322 326 332 328 323 323 321 320 319 318 317 316 317 318 320 322 322 324 325 325 327 327 331 333 330 327 324 324 326 325 322 319 318 316 315 314 313 314 315 316 317 316 315 316 317 318 318 320 320 319 321 322 326 331 330 333 338 336 336
314 313 315 317 319 321 321 320 317 317 317 315 316 315 319 326 329 332 332 332 331 330 331 332 332 329 323 321 323 325 327 329 325 326 324 321 319 317 318 319 316 317 318 321 324 324 325 325 324 326 326 329 331 330 327 322 322 326 327 324 321 319 316 314 314 313 314 315 316 316 316 317 317 317 317 318 319 319 319 319 323 330 333 331 333 337 336 336
314 313 315 317 320 321 319 319 316 317 317 315 316 315 319 325 329 332 332 332 331 330 330 332 332 326 319 321 325 327 328 328 325 326 324 321 319 317 319 320 318 319 321 324 326 325 325 324 324 325 326 329 331 330 325 323 324 326 327 326 322 319 317 315 315 315 315 315 316 316 317 320 319 316 316 317 317 318 319 318 323 331 333 332 335 337 336 335
314 314 316 318 320 320 318 317 315 317 317 315 316 316 320 325 327 330 332 332 331 330 330 331 331 321 317 322 325 329 329 327 325 324 322 321 318 318 320 320 320 321 322 324 324 325 326 325 325 326 328 330 330 328 325 327 328 326 327 326 320 319 320 318 317 318 317 316 316 317 321 324 318 316 317 317 317 317 319 320 322 331 334 333 335 336 335 335
314 314 317 319 319 318 317 316 315 316 315 314 315 315 319 323 324 328 332 331 330 330 329 332 329 317 318 323 325 331 329 324 324 322 322 321 318 319 320 320 321 322 323 323 323 325 325 326 327 327 330 331 330 328 326 328 327 325 327 325 320 320 322 320 319 320 319 317 316 318 323 324 318 315 318 319 319 318 320 321 321 327 331 332 333 335 334 335
314 315 318 319 319 317 316 316 315 315 314 314 315 314 316 320 322 326 331 331 329 329 329 331 325 316 322 325 326 329 327 325 324 321 321 320 319 320 321 321 320 321 324 325 324 325 326 325 326 327 329 330 329 327 326 325 323 324 325 324 322 322 325 323 321 322 322 321 320 320 322 323 319 316 317 319 320 319 320 322 322 323 327 328 331 334 333 333
315 317 318 318 317 316 315 315 314 314 315 314 314 314 316 319 320 325 330 330 329 328 329 328 321 318 324 325 325 327 326 326 323 320 321 320 320 321 321 320 320 321 324 326 325 324 325 325 325 327 327 327 328 327 326 324 322 322 323 325 325 325 326 325 324 323 324 325 322 321 324 324 322 320 318 318 319 319 319 321 323 323 324 326 329 333 333 332
315 317 317 316 315 314 313 312 312 312 314 314 314 315 316 316 318 324 330 331 329 328 329 325 319 320 325 324 325 325 325 325 323 321 321 320 321 321 320 319 319 322 323 324 324 324 325 326 326 327 326 326 327 327 326 324 324 323 323 326 328 328 328 326 326 324 324 324 320 323 328 329 328 325 322 319 318 319 319 320 325 325 323 325 328 333 335 332
316 317 316 314 314 313 312 311 311 311 312 314 315 316 315 314 317 324 330 331 328 329 329 322 319 323 324 324 325 325 325 324 323 323 320 320 320 319 320 320 321 323 322 323 324 324 325 325 325 325 323 324 324 325 326 325 325 326 327 328 330 333 330 325 325 322 321 321 318 323 328 330 328 324 321 320 318 318 319 321 324 324 323 326 329 333 335 333
317 316 315 314 314 313 312 311 311 311 312 313 314 315 314 315 320 325 329 330 329 329 325 320 321 323 322 324 324 324 325 324 323 322 320 320 319 319 320 320 322 323 323 324 325 325 326 325 325 324 321 321 323 325 327 327 327 328 331 331 332 334 328 322 322 321 321 319 316 322 327 329 328 321 318 320 319 318 319 319 322 324 323 326 330 332 334 334
316 315 315 314 313 311 311 311 312 313 313 313 314 314 313 316 320 325 329 329 329 327 323 322 322 321 323 324 323 325 326 325 323 322 320 320 319 319 319 320 321 322 323 324 324 324 324 324 324 323 320 321 324 327 328 330 331 330 332 334 334 333 328 323 321 320 321 318 316 322 325 326 328 321 316 318 318 318 319 318 319 322 322 325 329 331 332 333
315 315 314 312 310 311 313 314 315 314 313 313 314 313 314 315 316 322 328 327 327 325 322 322 321 320 324 323 323 327 327 326 324 322 320 319 320 319 320 321 322 323 323 323 324 324 323 322 322 323 322 323 325 327 331 333 334 332 332 334 333 332 331 327 322 319 319 317 317 320 322 324 326 320 314 314 317 318 318 318 319 320 322 325 328 330 331 331
315 314 312 309 311 314 315 315 315 314 313 313 313 313 314 314 313 317 325 326 325 324 322 321 320 325 327 321 324 328 326 325 324 321 320 320 321 321 322 323 322 322 323 323 324 323 323 322 322 325 324 325 326 328 332 334 332 332 332 333 333 331 331 329 324 320 318 318 318 319 319 321 323 321 317 314 316 317 318 318 319 319 321 325 327 329 330 330
315 313 310 310 312 313 311 311 313 314 312 312 313 313 313 314 312 314 320 324 325 324 324 322 322 328 329 323 323 325 324 324 322 321 321 321 323 323 323 324 323 323 324 326 326 323 322 323 325 327 327 327 327 328 330 332 330 331 331 331 333 331 329 330 323 318 318 318 319 320 319 319 320 321 320 318 316 317 318 318 318 319 320 323 326 327 328 330
314 311 310 310 310 310 310 311 313 313 312 313 313 313 314 314 315 314 317 323 325 325 324 322 323 327 327 323 323 324 323 323 322 321 321 321 322 323 323 324 325 326 326 328 326 323 323 327 328 329 329 327 327 327 327 329 331 332 332 332 332 331 330 329 320 315 318 320 319 320 321 321 321 320 320 320 319 318 318 318 318 319 319 321 323 325 327 329
314 312 310 309 309 311 313 314 314 312 312 313 312 315 316 315 316 315 317 323 325 323 323 321 322 325 324 323 324 323 322 322 321 322 322 321 322 325 325 325 327 328 328 326 325 323 325 330 329 327 327 326 326 327 327 329 330 332 333 332 332 333 331 325 318 315 317 320 321 322 322 322 322 322 321 320 321 320 318 318 318 318 319 320 321 323 326 327
315 313 310 310 311 313 315 315 314 312 312 312 312 316 316 313 314 312 315 323 325 322 321 320 323 324 323 323 325 323 322 322 322 323 322 322 324 326 325 326 328 329 327 325 325 326 328 330 328 326 326 326 326 326 327 329 330 333 333 332 332 333 330 322 316 315 316 319 322 322 322 322 321 321 322 322 321 320 319 317 318 318 318 319 319 321 324 326
314 312 312 313 313 314 315 314 314 312 312 312 313 315 313 311 312 311 313 320 325 323 320 321 324 325 324 326 324 322 322 322 323 323 322 323 324 325 325 326 328 329 326 324 326 329 330 330 326 325 326 326 327 327 328 329 331 334 333 332 332 331 333 326 318 316 315 318 321 320 319 318 319 319 319 319 320 320 320 319 319 320 320 319 319 321 323 325
313 312 311 311 311 311 312 314 313 312 312 312 313 312 311 311 312 312 313 315 321 324 321 321 324 325 325 326 324 323 323 322 323 323 322 323 324 325 325 326 328 329 326 324 326 328 329 328 325 325 326 326 328 327 329 330 332 335 334 334 332 331 332 326 319 316 315 317 318 318 321 322 321 321 319 319 319 320 320 321 321 322 323 323 323 324 325 324
312 311 310 310 310 309 309 312 313 312 312 312 312 311 311 312 311 312 314 314 319 324 322 321 324 325 325 324 324 324 323 323 324 323 322 322 323 324 325 325 328 330 327 324 326 328 328 326 325 326 326 327 329 329 331 332 333 335 335 333 332 332 331 323 319 319 322 324 319 316 327 331 325 323 323 322 321 320 319 320 321 321 322 322 323 324 326 326
310 309 309 310 311 310 310 312 312 312 313 312 311 311 311 312 312 311 314 316 320 324 324 323 325 326 325 325 325 324 326 326 324 322 322 323 322 323 325 325 326 329 327 324 326 328 326 325 326 327 328 328 330 330 331 332 333 334 334 332 331 331 332 326 323 327 331 331 319 314 326 331 324 322 324 324 324 323 321 320 320 320 319 319 319 320 323 325
309 308 308 307 310 312 311 311 311 311 313 312 310 311 311 311 311 312 315 319 322 323 324 324 325 325 325 325 324 325 329 327 324 323 322 323 323 323 325 326 326 327 324 324 329 328 325 326 328 328 328 330 330 331 331 330 332 334 334 334 331 331 333 330 327 329 331 329 322 317 321 325 324 323 322 324 325 325 323 322 321 321 320 319 319 318 319 321
309 309 308 308 309 311 311 310 310 311 312 312 310 310 311 311 311 312 316 322 323 323 324 324 322 323 324 324 323 325 326 324 325 324 321 322 323 322 325 325 325 327 323 325 329 328 325 327 328 328 329 330 330 331 331 330 331 332 333 333 332 330 332 331 329 329 329 331 331 324 320 327 330 326 323 323 322 323 323 322 322 322 321 320 319 318 319 319
311 310 310 310 310 310 309 310 310 311 312 311 310 310 310 310 312 314 316 321 323 323 323 322 321 323 325 324 325 325 324 323 326 324 321 324 323 320 324 324 323 326 324 324 328 327 325 326 326 327 329 329 329 329 330 330 329 329 330 330 330 330 330 330 330 330 330 331 332 328 324 329 333 328 325 325 322 321 321 321 322 322 321 320 319 320 320 319
311 311 311 310 309 309 309 310 310 311 311 311 310 310 310 311 314 316 317 319 321 322 322 322 323 325 325 325 326 325 324 324 324 323 323 324 321 320 324 326 325 325 325 324 325 323 322 322 324 327 327 328 328 329 330 331 328 328 329 328 329 329 328 329 328 330 334 333 331 330 324 326 332 331 326 325 323 322 321 321 321 321 321 321 320 320 320 320
311 311 311 309 308 308 309 310 310 310 310 310 310 310 311 313 314 318 319 318 319 319 320 323 325 325 325 326 328 326 325 324 323 323 323 322 322 323 326 328 329 328 327 326 322 320 322 324 325 325 325 326 328 328 329 330 328 328 329 327 328 328 327 328 326 327 335 335 331 331 327 325 331 331 325 325 323 321 322 321 321 322 323 324 323 321 320 321
310 310 311 309 308 308 309 310 310 310 309 310 310 311 313 314 315 320 319 318 320 318 317 323 326 325 325 326 327 326 325 325 324 322 323 323 323 324 326 327 328 328 329 328 323 322 325 325 324 324 324 324 328 328 326 327 327 328 328 328 331 331 330 332 329 326 332 332 325 327 329 328 328 325 323 324 322 321 322 321 322 324 325 326 325 323 324 324
310 310 310 309 308 308 309 308 308 309 309 309 310 312 314 315 317 320 318 317 320 317 316 320 325 326 326 327 327 325 325 325 324 323 323 324 323 325 327 326 325 328 329 326 324 323 325 325 322 323 323 323 326 327 325 326 326 327 327 329 332 332 332 336 334 331 333 327 319 321 326 329 328 324 322 321 320 322 322 322 324 324 323 325 324 327 328 325
309 309 308 309 309 309 309 308 308 309 309 309 310 312 315 317 318 319 317 316 316 316 316 319 324 327 326 327 327 325 326 326 324 324 324 325 325 326 327 326 324 326 326 325 324 324 327 328 323 322 325 323 325 326 325 325 325 326 327 328 331 331 333 336 334 334 333 324 317 320 327 332 331 326 321 319 318 320 321 320 321 322 322 323 324 326 328 325
308 307 308 309 309 310 310 309 309 309 309 309 309 312 316 318 319 318 316 314 314 315 316 318 323 328 328 327 326 324 325 326 324 324 326 326 327 327 326 326 324 324 325 325 324 323 327 327 322 322 324 322 325 325 322 324 325 326 327 329 330 330 329 332 331 328 328 325 321 323 328 329 325 322 320 319 318 317 318 319 318 319 321 321 322 324 325 324
307 307 308 308 308 309 309 310 309 308 309 309 310 313 316 316 316 317 316 314 314 315 316 317 321 327 330 328 326 325 324 325 325 325 326 326 326 326 325 325 324 323 324 325 324 324 327 325 320 320 322 320 324 324 320 324 327 325 328 329 329 328 326 330 330 324 323 329 327 324 327 324 320 322 323 322 321 317 317 318 316 318 320 320 322 325 326 325
306 305 305 305 306 307 308 310 308 307 308 309 311 313 312 311 312 315 316 315 316 316 317 319 319 322 328 327 327 326 324 325 325 324 326 326 326 325 324 324 324 323 323 323 323 324 325 322 318 319 322 320 323 324 321 324 326 325 328 327 325 327 326 327 329 327 326 330 328 325 326 326 324 327 326 323 323 319 317 317 316 318 320 320 324 327 329 330
305 305 304 303 305 306 308 309 308 308 309 309 311 312 310 310 311 314 316 317 317 317 318 321 318 317 322 325 326 326 325 326 326 324 325 326 326 325 323 324 323 322 322 322 324 323 322 322 318 317 320 320 320 324 324 324 324 323 325 325 325 329 329 325 327 330 330 329 329 329 328 327 326 326 324 323 323 320 318 318 317 318 320 321 325 328 329 330
305 305 304 303 304 306 307 308 308 309 309 309 311 312 310 310 310 311 314 316 318 319 318 319 317 315 317 321 325 325 325 326 325 324 325 325 325 324 323 323 324 323 322 321 323 322 321 324 319 316 317 319 320 323 325 325 322 320 321 323 324 326 328 326 326 330 332 329 330 331 329 330 328 323 322 324 323 320 320 321 320 320 320 321 324 327 331 332
304 305 304 302 303 305 306 307 309 309 309 309 312 311 309 310 310 310 311 314 317 318 318 316 315 316 316 318 322 324 325 326 324 324 325 323 324 324 322 322 323 323 322 321 323 323 321 323 321 316 316 320 322 323 324 324 321 319 321 324 324 323 325 326 325 327 329 329 331 330 330 331 328 321 321 323 321 320 321 322 324 325 323 322 323 329 334 332
304 305 304 301 303 305 306 307 308 309 309 310 311 310 309 309 309 309 309 311 313 315 317 316 315 316 316 316 320 323 325 326 324 324 324 323 323 325 323 321 322 323 323 323 323 323 323 322 320 317 318 321 323 321 321 322 321 320 321 323 324 323 323 326 328 326 324 327 329 327 328 332 329 321 321 321 320 320 323 325 328 327 325 324 326 330 331 327
303 305 303 301 303 306 307 307 308 308 308 309 309 309 309 308 308 308 308 309 310 311 314 316 315 314 313 315 318 321 325 326 325 324 324 323 323 324 323 321 321 322 323 324 324 324 322 319 317 318 318 319 319 317 318 321 321 320 321 322 324 323 322 325 328 328 326 326 324 322 328 332 328 322 322 322 322 322 324 326 326 323 323 326 328 327 326 324
304 303 302 302 304 306 307 307 308 308 308 308 308 308 309 308 307 307 307 309 309 309 312 316 316 314 313 313 315 318 322 325 325 324 324 323 322 321 322 321 321 322 323 324 325 324 321 318 317 317 317 316 315 315 316 318 320 322 321 321 323 323 322 324 325 323 325 327 325 324 328 327 323 326 327 322 322 323 322 322 321 320 319 321 324 325 325 325
302 302 301 303 304 305 306 307 307 307 307 307 307 308 309 309 308 307 308 309 309 309 311 314 316 316 315 314 314 316 320 322 324 324 324 323 322 322 322 321 321 322 323 323 323 322 322 320 317 318 318 318 317 317 317 317 318 321 321 321 321 322 323 325 322 319 322 327 327 327 328 325 321 325 324 319 319 320 318 317 317 318 319 320 323 325 326 325
301 301 301 303 304 305 306 306 306 306 307 307 307 308 308 308 308 308 308 308 308 309 310 312 314 316 316 315 314 316 317 318 321 325 325 323 323 323 322 321 322 321 322 324 322 320 322 321 318 320 321 322 321 320 320 319 317 318 320 320 321 322 323 323 322 321 323 326 325 325 325 323 320 319 319 317 317 317 314 314 314 316 319 322 323 324 326 327
301 301 301 303 304 305 305 305 305 306 306 307 307 307 307 308 308 309 308 308 309 309 309 310 312 315 316 315 314 315 315 315 316 320 323 324 324 323 322 322 322 321 323 326 322 319 322 320 318 320 321 321 322 322 321 320 319 319 320 321 321 322 323 323 322 322 323 324 324 324 322 322 321 319 318 317 318 317 315 314 315 317 319 322 322 323 326 328
301 301 301 302 304 305 305 305 305 305 306 306 306 307 307 307 308 309 309 309 310 309 308 308 309 312 315 315 315 315 314 314 314 315 319 323 322 323 323 322 322 323 324 323 320 320 322 321 319 320 320 319 321 321 320 319 319 319 319 320 321 322 323 324 323 322 321 323 324 323 321 322 321 318 317 317 317 316 315 315 316 317 322 325 324 323 323 325
302 301 301 302 303 304 304 305 305 306 306 306 305 307 307 307 308 309 308 308 310 310 309 310 308 309 311 313 315 315 314 314 315 315 318 321 322 323 324 323 323 324 323 321 319 320 321 322 321 320 321 321 321 320 319 319 319 318 318 319 320 321 322 323 323 321 321 323 323 322 322 322 320 318 319 318 317 315 314 316 317 317 323 326 323 323 323 325
302 302 301 302 303 303 303 305 305 306 306 305 305 306 307 307 307 309 308 308 310 310 309 310 310 309 309 310 313 315 315 317 317 315 315 319 322 323 324 325 324 322 321 320 320 319 320 322 322 321 322 323 322 321 319 318 319 318 318 318 318 320 321 321 321 321 321 322 321 321 323 322 320 321 320 318 319 317 315 317 317 318 322 323 320 322 324 325
303 303 302 303 304 303 303 305 306 306 306 305 305 306 307 307 307 308 308 308 309 310 308 308 310 311 309 309 310 312 314 317 319 317 314 317 322 323 323 325 322 320 320 319 319 319 320 322 322 321 322 323 323 322 320 319 319 319 319 318 318 319 320 320 320 320 321 321 320 321 323 321 320 322 321 320 320 318 316 316 316 317 321 322 321 322 323 324
301 302 302 303 304 303 303 304 305 305 305 305 305 306 306 306 307 308 309 309 309 310 308 308 309 311 311 310 309 310 311 313 316 318 317 317 321 322 321 322 321 320 321 320 319 320 321 322 323 321 322 322 321 322 322 321 320 320 319 319 318 318 319 319 319 319 319 320 320 321 322 320 319 321 322 321 319 316 315 315 314 316 319 321 321 322 324 324
300 301 301 303 305 304 303 304 304 304 305 304 305 305 305 306 307 307 308 309 309 310 309 309 309 310 311 310 309 309 309 309 312 317 318 318 320 319 318 319 319 319 320 320 319 320 321 322 322 321 322 322 321 322 322 321 321 320 319 318 317 317 318 318 318 318 318 319 320 320 320 318 319 321 321 321 320 317 315 314 314 315 316 317 318 320 322 321
Wind_Speed
44 43 44 42 42 40 40 38 36 38 37 40 43 38 37 39 42 47 45 42 40 39 39 36 32 29 27 26 24 24 23 23 22 18 15 21 25 18 24 27 19 21 21 19 21 19 15 12 15 12 7 4 2 1 2 3 1 2 1 2 3 3 2 2 4 3 4 5 4 4 1 1 3 3 2 2 2 2 3 3 5 6 7 8 14 23 24 24
45 43 43 43 42 40 42 41 37 40 38 39 42 39 39 41 44 48 45 43 40 39 40 36 33 30 27 26 24 24 24 21 18 18 21 23 22 16 23 28 22 25 25 19 22 20 13 10 14 12 5 2 1 1 1 1 2 2 1 2 2 1 1 3 6 5 4 4 4 5 3 2 2 2 2 1 4 5 5 4 6 6 7 7 14 22 23 23
46 42 42 43 42 40 42 42 40 40 39 39 41 40 41 43 47 50 46 43 41 38 38 36 33 30 28 27 24 25 24 17 12 17 24 22 21 20 24 28 26 28 26 18 19 21 15 14 17 12 4 2 2 2 2 1 1 1 0 1 1 2 3 4 6 6 5 5 4 6 3 1 2 2 2 1 3 4 6 6 7 8 8 7 12 20 21 21
46 43 42 43 41 42 43 41 41 41 40 39 40 40 41 43 47 52 49 44 42 39 37 36 33 30 29 28 25 27 22 10 8 17 25 24 23 24 25 28 29 29 26 16 14 16 18 18 14 8 4 3 3 3 4 3 1 1 2 2 1 1 2 5 6 6 5 4 3 3 1 0 2 2 1 2 3 3 4 3 6 10 12 11 11 17 19 19
46 45 44 43 41 42 44 42 41 40 40 39 40 40 38 40 44 50 51 45 43 39 37 36 33 31 29 27 29 30 19 3 8 20 27 27 26 27 25 26 31 32 28 16 8 11 13 17 10 6 4 3 3 3 5 5 2 1 4 2 2 2 1 4 5 5 4 1 2 1 1 2 2 2 2 4 4 2 0 2 2 3 13 15 13 16 17 16
47 48 45 43 43 43 44 43 42 41 40 40 41 42 37 36 42 47 50 47 44 39 38 37 33 32 28 30 35 29 15 2 8 25 31 29 29 31 27 23 27 30 26 15 9 13 12 13 10 6 5 4 5 4 4 6 4 3 4 3 0 1 1 3 4 3 3 2 2 3 3 3 3 3 3 5 6 2 4 4 7 6 15 19 17 17 14 14
49 49 45 44 45 45 43 42 44 42 40 39 39 41 37 34 41 46 49 48 45 40 38 37 35 32 29 34 32 18 12 2 6 25 34 33 32 33 28 22 24 27 24 16 12 15 10 12 10 7 7 4 7 6 1 4 5 5 5 5 4 2 3 4 4 2 2 3 3 3 2 3 4 3 2 1 6 3 4 6 7 10 18 18 15 15 14 15
48 47 44 44 46 45 42 40 42 40 39 38 36 37 35 35 41 45 50 48 45 41 38 39 36 33 37 35 19 6 10 3 7 25 35 35 33 33 27 21 25 28 22 15 14 12 9 11 11 8 7 5 7 7 3 3 4 6 6 4 3 2 3 5 3 3 1 1 1 2 4 5 4 0 2 4 8 6 3 7 7 10 14 13 12 12 12 14
46 45 42 45 46 44 42 40 41 40 39 37 35 35 32 33 38 43 50 48 45 42 39 41 37 37 40 28 12 6 10 6 12 26 32 35 35 32 28 23 26 26 17 10 9 9 8 10 9 6 4 5 7 7 5 4 2 6 7 3 3 2 3 4 4 4 3 2 1 2 5 5 1 3 2 7 8 7 6 7 6 8 9 9 10 11 11 11
46 44 44 47 46 43 42 42 42 40 38 36 36 34 30 31 33 40 52 50 45 42 41 41 39 41 35 20 11 7 10 11 16 26 31 37 38 32 28 26 26 24 16 10 7 8 6 7 6 4 4 2 4 6 6 4 2 5 6 1 1 2 3 4 3 4 3 4 4 4 5 5 1 2 3 2 2 3 7 7 6 7 7 8 8 10 12 12
46 46 47 48 46 44 43 43 41 39 38 36 35 33 29 30 29 34 49 53 48 44 41 41 42 42 30 17 11 6 13 18 19 28 33 38 40 34 30 30 28 24 17 14 12 15 9 7 8 4 3 2 2 5 5 3 2 3 4 1 1 4 5 4 5 5 3 3 6 6 6 6 2 3 6 4 1 2 7 6 6 6 6 7 8 9 11 12
45 47 49 47 46 45 43 40 37 36 37 35 34 32 28 29 28 30 45 51 48 46 43 42 45 40 24 12 8 10 18 19 22 30 32 35 37 34 31 32 30 23 20 16 14 15 10 10 14 6 3 7 5 4 4 3 3 3 3 2 5 6 7 8 7 6 5 3 4 3 5 7 6 6 9 9 5 5 6 6 6 6 6 6 7 7 8 11
44 45 47 46 43 42 40 37 33 31 33 33 33 30 25 24 24 31 46 49 47 48 45 43 45 35 19 8 6 17 20 18 26 29 29 31 30 29 27 28 27 20 22 21 15 15 15 16 14 6 3 7 5 4 5 5 3 3 3 3 3 4 6 9 10 7 6 4 5 3 3 5 7 10 12 9 8 8 7 7 7 6 6 6 7 6 6 10
47 47 47 44 41 39 37 35 31 27 29 33 33 28 23 18 20 33 49 50 48 49 46 47 44 28 13 4 7 20 23 22 28 27 28 30 26 24 23 24 23 19 24 26 21 19 20 15 13 7 2 2 4 5 6 5 3 3 4 2 2 3 3 4 7 8 6 2 4 5 4 6 3 3 5 8 9 8 7 7 7 6 6 6 6 6 6 8
52 49 45 43 40 39 35 32 30 28 29 32 32 28 23 15 16 33 50 51 50 49 47 46 37 21 8 2 8 21 25 25 27 27 29 30 27 22 21 24 23 22 24 25 23 18 16 15 11 5 1 1 5 6 5 4 3 3 4 2 3 4 2 1 3 8 7 1 3 6 3 5 5 1 5 8 8 7 7 7 8 7 7 6 6 6 5 7
51 45 43 42 38 34 32 32 32 32 32 34 32 29 24 14 12 29 47 49 48 49 44 36 29 18 8 3 11 20 20 22 26 27 29 30 29 24 26 27 23 24 22 17 18 17 16 12 3 2 3 2 5 5 4 4 3 4 4 3 5 6 3 0 1 5 6 2 4 8 4 2 4 4 5 5 7 7 6 6 7 8 8 7 6 6 6 6
45 41 40 39 35 34 35 35 35 36 35 36 34 30 25 16 10 20 44 49 46 51 40 28 29 17 4 6 13 16 15 21 27 27 29 30 29 30 31 25 18 20 18 14 17 13 10 6 0 2 2 3 5 5 5 5 4 5 4 3 5 7 5 3 1 3 5 4 6 9 8 6 4 3 6 5 6 7 6 6 7 7 8 8 7 7 6 7
41 40 39 37 36 40 40 35 35 35 34 34 33 30 27 23 14 12 37 48 40 40 28 18 23 12 2 6 10 17 20 23 29 28 29 28 28 31 28 19 15 17 14 10 12 7 3 2 1 3 3 4 6 6 5 6 6 6 6 4 4 7 6 5 3 4 8 6 6 8 9 11 10 6 5 6 7 7 7 7 7 7 7 8 7 7 7 8
42 40 38 37 37 39 36 33 33 33 32 31 29 28 24 18 12 12 23 40 26 17 12 10 15 7 6 12 11 20 26 27 29 26 28 29 28 28 22 17 15 14 11 7 7 6 4 3 2 5 6 7 7 7 6 6 8 8 9 6 5 4 5 5 3 5 10 6 6 8 9 10 10 10 9 7 7 7 7 7 6 6 6 7 7 7 7 7
42 41 38 35 35 34 34 35 36 35 35 34 30 24 14 7 4 7 7 21 16 10 16 20 19 8 10 14 14 23 26 26 24 22 30 32 29 25 16 14 12 9 9 9 8 6 5 6 7 7 9 10 10 10 9 8 8 6 7 7 5 3 3 5 4 4 7 5 5 8 9 10 9 10 10 9 8 8 8 8 7 7 6 6 7 7 8 8
41 42 38 34 33 31 34 37 37 36 34 36 32 17 6 5 5 2 3 8 12 10 18 28 18 6 13 18 24 29 22 19 18 20 31 33 28 21 12 12 13 8 9 10 8 5 5 8 8 8 10 11 11 11 11 11 8 6 4 4 4 4 2 2 5 5 4 2 4 6 8 11 10 9 9 8 9 9 9 9 8 8 7 7 7 9 8 7
42 41 38 35 33 31 31 32 34 33 30 32 26 8 5 10 8 5 3 6 13 9 16 25 11 5 15 20 29 34 21 15 17 17 28 30 22 17 12 13 14 9 10 10 7 5 6 7 8 10 9 10 11 11 11 11 8 7 4 1 3 4 2 4 6 5 4 2 3 4 6 9 9 9 9 9 9 8 9 10 9 9 9 8 9 9 8 8
42 41 39 36 35 32 27 28 31 30 25 22 16 7 13 19 11 6 6 3 10 10 16 22 11 9 15 13 24 31 18 17 20 17 27 28 17 14 13 14 14 10 11 12 10 9 7 5 10 12 10 11 12 12 12 9 7 5 2 2 2 3 3 1 3 5 4 3 3 3 5 7 7 7 9 10 10 9 9 10 9 9 10 10 10 9 9 10
42 41 38 34 33 31 26 26 26 23 21 19 16 18 24 22 13 6 5 2 4 8 15 19 13 12 13 14 28 28 13 14 17 18 28 24 13 12 12 13 13 11 10 11 11 8 5 6 11 13 12 13 12 12 11 7 5 5 4 4 3 4 4 3 3 4 3 4 4 3 5 6 7 9 10 9 10 11 10 10 10 9 9 9 9 9 9 11
41 37 33 31 28 30 30 24 18 20 22 17 18 26 27 23 16 10 6 2 0 5 15 17 8 7 10 16 25 20 12 11 12 16 22 20 16 12 9 9 9 10 12 12 10 6 5 8 12 13 13 14 12 11 11 7 4 4 6 6 5 7 4 7 6 3 0 3 2 1 2 4 3 7 9 7 8 11 11 11 12 10 9 9 9 9 9 9
38 34 31 27 27 33 30 15 13 24 21 13 20 29 27 23 20 12 4 3 1 4 16 15 7 12 15 13 14 13 13 11 8 16 20 18 18 12 9 8 5 9 13 11 7 3 5 10 12 13 13 13 11 9 9 8 4 3 5 7 10 11 3 6 6 3 1 3 1 2 2 4 3 3 6 5 7 10 10 12 14 12 11 11 10 10 9 9
34 33 30 27 31 34 20 9 16 21 13 12 27 32 27 27 25 13 4 1 2 4 15 10 6 18 18 13 16 13 12 11 7 11 15 17 17 10 10 11 7 10 11 8 5 3 8 13 13 14 13 11 10 8 9 10 6 3 1 5 12 11 2 5 4 1 1 1 1 3 3 4 6 4 6 6 6 8 9 11 14 13 13 12 12 11 11 11
32 33 30 29 33 27 15 18 18 10 11 23 34 35 34 35 27 12 4 2 2 4 10 5 4 15 14 14 18 11 13 19 13 10 14 18 15 7 10 14 11 12 12 10 6 2 9 15 15 15 12 10 10 8 9 11 7 2 2 1 5 5 2 3 3 2 1 3 1 4 4 2 6 4 6 7 7 9 10 11 11 12 13 13 13 13 13 13
33 32 31 31 28 19 20 26 15 10 24 36 36 35 38 35 21 7 1 2 2 2 4 6 8 12 13 14 13 10 14 14 10 9 12 14 7 1 7 12 12 13 13 9 4 1 6 11 14 15 11 9 10 9 9 10 6 1 2 6 6 4 2 3 2 0 0 1 3 5 5 2 6 4 4 5 7 10 10 9 9 11 11 11 11 12 12 11
32 31 33 32 22 18 23 21 17 25 36 37 36 34 31 22 10 4 3 1 1 1 2 6 8 12 20 16 9 13 16 8 7 11 7 5 3 3 2 6 7 10 8 4 3 1 1 2 7 10 7 7 8 6 5 8 7 5 5 7 6 4 5 4 2 2 1 2 4 7 7 4 4 4 6 6 6 8 8 7 9 10 9 10 10 10 10 9
30 31 32 29 21 22 20 12 21 37 38 38 40 31 19 9 2 4 4 0 2 1 3 6 12 17 24 19 9 13 16 11 13 12 6 6 4 2 5 5 3 6 6 4 2 2 4 4 5 2 1 4 8 2 2 5 10 7 5 5 4 3 3 2 1 2 1 3 3 7 8 8 6 5 4 3 4 6 9 8 9 9 9 9 8 9 9 8
30 30 28 25 24 24 17 14 28 39 38 40 33 17 9 5 2 4 3 2 2 1 3 5 15 21 22 18 13 15 16 13 15 14 11 11 9 9 11 8 8 8 7 8 6 4 6 6 4 2 2 3 7 4 3 4 9 6 5 6 5 2 1 2 2 1 3 3 1 4 5 6 7 7 8 8 5 7 8 7 7 8 7 3 2 2 2 3
32 31 26 25 24 19 18 25 35 37 36 34 20 4 4 6 5 3 3 2 1 1 1 2 12 23 22 16 14 15 14 13 17 17 14 14 11 11 11 11 12 7 6 11 8 4 3 1 1 3 2 4 7 8 4 4 7 7 7 7 5 4 3 4 4 2 3 2 1 2 3 3 4 5 11 14 10 8 7 7 8 7 3 4 6 5 5 5
32 29 23 23 21 18 22 30 36 38 32 22 9 2 5 7 4 3 4 2 1 3 3 3 8 24 23 15 14 16 13 11 18 17 14 13 11 10 9 12 14 5 6 11 5 6 8 2 4 9 5 5 8 8 6 5 5 6 5 4 5 4 3 4 3 2 2 0 2 1 2 3 3 2 8 9 7 6 5 5 6 3 1 3 5 6 6 5
30 26 23 21 19 21 27 32 37 39 27 12 4 3 7 7 4 4 4 4 2 4 5 3 4 19 20 11 14 18 10 10 20 17 12 14 12 12 11 13 19 12 10 11 5 7 11 4 6 8 4 10 11 5 8 9 4 3 2 2 4 3 2 2 2 3 3 2 2 3 3 4 3 6 9 6 5 6 6 4 4 3 3 4 3 4 6 6
27 22 19 16 14 21 30 33 36 33 19 7 3 3 3 2 2 4 5 5 5 6 8 3 3 11 16 10 12 16 6 8 19 15 10 14 12 14 14 11 17 16 13 12 5 6 9 3 5 5 1 11 11 6 11 11 5 3 3 4 3 1 2 2 1 1 3 2 3 4 3 5 3 7 10 9 8 7 7 7 6 7 6 6 6 6 6 6
23 17 13 12 9 20 29 31 32 27 12 3 2 3 1 1 1 4 5 6 6 6 8 5 2 3 9 8 11 16 11 10 15 11 8 11 10 13 15 10 14 16 13 11 4 4 7 2 1 3 4 7 4 5 9 8 4 6 6 6 4 4 2 2 0 1 1 4 3 4 5 4 2 4 6 7 9 7 7 8 7 7 7 7 7 7 7 7
20 14 10 11 7 18 26 26 25 18 6 2 2 2 1 1 1 2 3 5 7 5 5 4 1 2 2 6 10 16 17 13 14 11 9 9 6 12 17 12 14 18 15 14 7 4 8 4 3 1 4 5 2 5 7 4 1 3 4 5 4 0 1 3 2 2 3 5 4 4 7 5 5 4 2 5 9 8 7 8 8 8 7 7 7 7 7 6
16 10 5 5 7 18 25 23 16 9 3 3 3 1 2 3 1 3 5 2 6 6 4 3 2 2 1 3 8 15 17 16 16 13 11 9 7 14 20 13 14 19 18 16 10 6 8 5 1 2 1 4 3 4 8 6 0 1 2 5 4 1 2 4 3 2 2 3 3 2 3 4 6 7 7 9 11 10 9 7 8 8 8 8 7 7 6 6
8 5 3 3 10 21 23 16 9 5 3 3 1 1 2 3 1 2 6 4 3 2 3 4 3 2 1 2 4 9 12 16 19 13 10 12 10 15 21 16 14 19 19 15 11 8 6 5 4 1 1 4 6 5 9 11 6 3 5 8 6 2 2 1 2 2 2 2 3 3 3 4 5 6 9 10 9 9 8 7 7 7 8 8 7 7 6 6
4 4 3 5 16 24 19 9 4 5 3 1 3 3 2 3 2 3 7 7 5 3 1 4 5 3 3 1 2 6 7 12 17 12 8 13 12 11 17 19 17 18 18 14 10 9 6 4 7 5 4 7 7 3 4 7 9 8 7 7 8 5 3 2 4 4 3 3 2 2 3 6 5 2 4 7 6 6 6 6 5 5 6 7 6 6 6 6
4 4 4 11 21 21 11 4 3 3 1 1 3 3 4 4 3 3 5 6 5 3 2 3 5 4 3 1 2 4 5 7 14 12 8 14 16 11 16 22 20 18 16 12 8 6 4 5 7 6 4 4 2 2 3 1 4 7 5 5 6 6 5 6 6 4 3 2 1 1 3 6 5 3 3 2 6 6 4 6 7 5 6 7 6 6 5 5
4 6 8 13 18 13 5 3 4 3 1 2 3 5 5 4 3 3 4 3 3 3 3 1 4 4 3 2 2 3 2 3 12 14 10 14 16 12 16 23 22 18 15 10 6 3 4 5 7 5 3 2 4 2 3 5 1 6 7 7 7 8 9 7 3 3 3 3 2 2 5 5 4 4 5 3 4 6 4 6 7 5 4 4 5 6 5 5
5 6 6 7 10 7 2 2 4 4 2 4 4 5 4 3 4 4 4 3 2 2 1 1 2 3 4 5 4 3 2 1 9 12 8 10 11 9 16 24 23 17 14 10 8 6 4 6 8 8 5 2 3 2 2 2 4 7 9 10 10 11 10 5 1 2 2 5 6 5 6 5 3 4 4 4 3 4 4 4 4 4 4 4 5 5 6 5
5 4 3 3 3 2 1 1 3 4 4 4 5 6 5 3 3 5 6 5 3 2 1 1 2 1 5 6 4 2 2 3 3 6 4 6 7 7 15 23 21 16 13 12 11 7 4 6 9 10 10 9 8 8 8 8 6 3 5 11 13 12 10 7 2 1 4 7 7 6 7 3 2 5 5 4 3 0 3 3 3 3 4 4 5 6 6 6
3 3 3 3 1 1 0 1 1 5 6 5 5 6 6 5 4 7 7 5 4 3 1 2 3 1 6 9 5 2 1 3 2 1 1 4 4 4 15 23 20 17 14 14 14 8 3 5 9 9 11 11 8 5 6 7 6 5 6 10 11 10 9 7 4 6 9 6 4 8 9 7 7 6 4 5 5 5 3 4 5 5 4 4 5 5 5 5
2 3 4 4 2 2 2 2 2 4 6 6 4 5 7 6 5 6 5 4 5 5 1 1 2 1 5 9 5 4 4 1 3 3 3 1 2 4 14 20 18 17 14 12 13 9 3 5 9 10 12 11 6 6 10 11 11 12 12 11 11 12 12 10 9 13 11 5 7 14 14 15 15 8 6 7 7 6 6 6 7 6 6 6 5 4 4 5
1 3 3 3 2 3 4 3 3 3 6 6 3 4 8 7 6 5 4 4 5 5 2 1 4 3 2 4 3 4 6 3 1 1 3 2 3 7 12 15 14 16 15 9 10 8 4 5 10 11 11 10 8 9 12 13 12 14 16 16 16 17 18 17 17 18 13 8 14 19 16 19 18 8 7 9 8 8 8 7 6 6 6 6 6 6 6 6
1 3 3 1 1 3 5 5 3 4 5 5 2 4 7 9 8 6 5 5 5 6 4 2 4 6 4 2 2 4 7 4 2 4 1 3 3 7 11 11 7 9 13 10 7 6 5 5 8 10 9 8 9 10 13 13 12 12 16 18 17 17 19 21 20 19 16 13 18 20 17 19 15 7 8 10 8 8 7 6 6 6 7 7 7 7 7 7
1 2 3 1 2 3 5 5 5 4 4 4 2 2 4 7 8 7 6 7 6 6 7 6 5 7 6 4 2 3 4 0 1 6 5 3 3 4 7 8 5 6 10 9 7 7 8 8 8 9 6 7 9 10 11 13 13 12 15 18 18 16 17 19 19 18 15 15 20 19 18 18 11 6 7 7 6 6 6 7 8 8 8 8 8 8 8 7
3 3 2 1 3 5 5 4 4 3 3 4 4 3 3 5 7 7 6 8 8 8 9 9 6 5 5 6 6 7 6 5 3 3 6 6 3 1 1 3 7 10 9 6 7 9 10 8 7 7 6 8 11 11 9 9 9 10 13 17 19 19 18 18 19 18 15 15 18 16 16 16 8 5 6 5 6 8 8 10 9 7 8 9 9 9 8 8
5 6 5 1 3 5 5 4 3 3 3 4 5 5 4 3 5 6 4 6 9 9 9 9 7 4 4 7 9 8 7 7 5 2 2 4 5 2 3 4 1 9 11 8 7 7 9 8 6 7 9 9 9 10 8 6 5 9 13 19 23 23 19 15 15 17 17 16 15 14 17 14 6 6 9 8 7 8 9 10 9 8 9 10 9 10 9 9
Wind_Direction
236 236 235 234 233 229 229 228 228 229 225 219 219 226 223 215 216 211 204 198 197 200 198 195 192 187 181 179 177 175 173 172 169 169 185 198 192 190 192 189 182 175 169 166 165 157 156 148 137 139 130 102 64 74 8 340 315 296 213 207 245 248 286 24 57 58 112 102 98 116 195 229 133 142 132 127 235 144 146 143 100 79 80 91 114 126 133 139
234 234 233 231 230 225 226 225 227 229 223 218 218 224 226 216 211 207 201 197 197 198 195 193 190 185 182 178 178 173 168 171 174 186 198 192 185 181 185 186 176 170 165 163 168 160 157 153 142 147 135 109 167 104 82 324 306 272 220 238 250 115 7 13 55 59 61 69 98 94 47 324 67 117 127 186 206 172 173 168 139 124 106 108 124 131 137 142
231 230 230 229 226 221 223 224 225 227 220 217 218 223 226 218 210 206 201 197 198 198 193 192 188 184 182 177 175 168 162 167 181 205 202 186 184 180 176 179 172 169 166 163 175 167 155 154 149 147 153 163 163 157 140 142 277 268 227 246 264 101 85 47 55 64 45 27 74 87 57 338 46 82 140 232 244 192 195 184 164 162 147 146 138 138 145 150
229 227 227 227 223 220 223 221 221 223 217 214 217 223 227 223 214 201 196 196 196 198 194 190 187 183 181 176 171 160 153 166 201 211 202 187 187 181 172 176 175 171 172 177 190 179 156 150 146 131 154 173 144 168 157 167 215 135 246 241 17 346 69 62 60 57 48 26 29 81 112 156 57 23 179 235 273 233 227 189 174 182 162 156 152 147 154 158
226 224 226 223 216 218 220 216 216 218 215 212 214 221 225 227 218 196 189 194 195 196 193 188 185 182 181 174 163 154 148 165 204 200 198 187 183 182 173 172 175 175 184 193 191 208 178 151 145 127 155 161 133 177 168 178 212 201 243 251 359 325 63 85 73 40 28 23 315 13 40 349 11 321 235 232 255 227 243 35 41 171 155 155 156 152 158 162
224 223 224 220 213 213 212 210 213 214 212 211 212 219 224 225 217 196 187 192 194 195 190 186 183 181 179 167 158 157 164 165 179 189 192 185 178 180 178 169 172 175 182 180 169 223 212 157 161 164 173 165 154 195 167 166 190 209 225 212 239 344 91 98 82 39 354 354 1 25 13 334 314 279 228 214 238 214 100 69 32 65 135 150 153 153 163 168
223 221 220 218 214 209 206 207 210 211 210 208 210 218 225 223 212 197 188 189 191 193 188 183 182 180 169 159 159 169 194 202 163 185 187 182 178 179 179 170 168 166 167 179 202 218 197 165 182 170 173 180 166 188 156 128 166 201 223 204 195 186 130 104 91 94 15 2 30 15 328 293 276 285 355 281 257 258 108 100 73 99 130 147 154 159 170 172
221 219 216 214 211 204 202 205 205 206 205 202 206 215 225 222 211 198 188 188 188 190 187 181 180 175 161 158 161 181 207 203 148 178 180 176 176 176 174 167 165 163 166 191 213 199 173 178 186 169 180 185 161 168 162 118 149 203 222 216 180 158 143 121 133 154 128 298 20 329 281 274 260 5 8 280 262 253 147 116 107 118 134 150 159 165 173 173
219 214 211 209 207 200 198 201 199 200 200 198 202 212 222 218 213 202 188 185 186 188 186 179 179 171 162 163 160 164 196 185 153 170 173 171 173 174 170 166 166 165 167 185 200 197 189 184 179 169 168 161 154 151 167 168 158 205 215 224 137 175 203 141 171 195 167 198 198 252 265 273 294 71 283 256 248 230 159 128 135 138 147 160 163 169 176 176
216 210 207 205 201 197 196 197 197 200 201 199 200 208 219 217 216 205 188 184 184 186 185 180 176 168 165 169 164 172 177 158 161 169 171 170 171 170 169 169 165 163 158 146 175 224 219 176 157 109 87 114 166 142 160 186 157 193 210 254 107 227 238 155 196 231 188 185 192 225 265 268 135 120 249 294 322 207 144 136 157 157 166 170 167 171 179 181
211 207 206 200 194 193 194 196 196 199 198 195 198 206 218 222 224 207 185 181 183 184 187 182 173 167 170 176 170 169 150 148 162 166 168 170 168 167 169 168 164 164 154 139 183 228 239 177 149 115 109 152 160 136 150 169 115 155 173 160 221 255 258 207 215 233 227 213 196 215 267 265 201 164 223 231 15 125 143 159 172 181 191 181 173 170 179 184
205 205 202 193 187 187 186 188 187 191 191 189 197 203 213 222 229 213 183 178 181 182 187 182 172 167 169 183 182 150 143 150 160 161 165 167 167 168 168 168 166 168 159 154 194 218 238 205 172 164 159 149 130 125 150 156 130 125 149 196 209 225 246 229 219 214 217 219 174 194 283 259 226 216 225 217 185 151 164 180 175 193 205 189 182 170 177 186
200 197 191 183 179 178 176 177 179 184 182 181 190 195 205 218 229 213 185 179 180 179 184 179 170 168 167 183 163 139 137 149 158 159 164 163 164 164 164 169 169 172 171 166 171 184 220 224 179 150 136 149 135 115 136 145 139 132 174 232 201 202 239 220 206 195 198 193 139 139 278 250 229 231 219 192 164 160 173 185 176 192 208 194 186 174 178 188
191 186 179 176 174 173 174 176 181 184 177 176 181 186 199 217 231 206 183 177 178 178 181 175 168 169 171 160 139 143 138 147 156 157 164 162 158 155 160 172 166 164 177 173 166 183 214 205 149 119 28 113 129 127 131 137 155 157 164 228 216 201 250 215 177 160 167 183 146 159 252 253 256 269 191 148 146 162 172 188 181 185 205 196 183 181 182 193
183 180 175 174 173 174 176 177 180 181 178 177 179 186 196 209 225 198 179 174 177 178 175 170 169 169 167 144 154 155 145 150 159 159 165 163 156 154 161 171 165 161 176 178 169 173 180 159 131 117 46 59 124 136 142 142 181 184 160 188 217 213 256 330 144 158 169 245 191 189 247 252 234 142 108 131 149 169 184 193 186 182 194 193 182 186 186 196
177 176 173 173 173 175 177 176 176 173 173 174 178 185 189 197 216 191 178 173 174 174 168 168 175 170 158 153 156 158 151 155 161 161 166 165 160 160 161 166 174 174 175 169 151 138 136 136 109 101 118 144 140 146 158 151 183 198 193 192 195 201 196 157 251 194 179 155 199 212 237 264 219 170 137 155 163 170 197 210 199 186 185 188 182 187 194 193
174 175 173 171 169 168 167 167 168 167 169 172 177 182 185 201 226 187 176 173 170 168 166 170 175 170 158 144 148 159 157 156 160 161 167 170 164 160 159 160 166 161 148 137 139 131 120 118 50 136 125 169 169 177 176 171 176 183 210 228 197 188 180 158 219 248 194 175 200 215 234 254 265 191 155 184 183 169 194 219 223 204 182 179 178 184 196 195
174 174 172 169 165 162 162 163 163 165 166 168 174 179 185 202 232 209 171 164 162 163 167 172 166 166 206 173 160 159 158 158 161 163 165 168 165 159 156 149 140 133 122 126 143 138 110 78 149 159 164 182 186 197 187 177 176 175 190 222 212 185 189 185 160 190 184 193 215 207 227 240 253 247 191 195 192 179 192 200 219 225 189 171 175 186 193 199
173 172 170 167 166 168 170 172 170 168 164 160 162 168 180 199 237 257 173 156 158 165 158 159 168 170 164 180 176 152 156 159 157 162 161 161 165 160 149 141 138 134 133 141 148 146 127 118 165 172 178 187 191 199 199 190 186 184 177 188 224 197 194 195 144 166 176 181 219 217 235 239 237 241 235 226 200 191 205 198 202 223 206 175 174 189 195 200
170 169 169 169 171 176 177 174 171 168 165 156 146 147 166 188 201 270 198 159 172 169 139 157 179 179 148 162 154 140 150 158 156 164 165 164 165 159 147 144 145 146 154 153 150 153 148 161 188 186 175 178 188 197 209 221 220 214 180 175 214 222 209 192 145 169 181 175 217 224 244 252 245 236 235 235 219 209 210 207 201 203 208 194 184 193 196 200
167 167 169 172 172 174 169 166 166 166 166 158 147 138 154 174 155 221 277 167 170 154 147 163 172 149 146 152 148 144 145 157 163 168 167 167 163 157 156 157 157 169 166 143 124 131 178 189 188 175 168 174 189 201 214 231 247 256 232 180 196 212 225 118 118 156 168 152 235 237 249 254 252 246 240 232 225 217 206 206 207 200 201 202 199 201 197 197
166 167 170 171 169 167 162 162 165 165 163 155 147 129 115 130 109 67 43 158 162 148 152 162 155 105 149 151 151 149 140 150 163 167 169 170 167 164 165 165 168 167 150 138 125 145 198 205 171 161 169 181 193 209 218 230 243 251 256 253 215 191 156 82 113 149 142 141 239 251 262 260 254 251 248 237 231 224 205 201 203 200 204 206 205 204 196 194
166 168 169 169 167 164 161 160 160 161 160 153 142 120 122 129 120 62 36 109 155 153 158 162 156 148 153 145 149 148 140 156 163 167 175 174 170 167 163 169 170 153 151 163 162 170 194 193 164 161 175 188 194 211 219 225 237 238 212 225 235 189 186 149 148 158 153 205 264 315 294 276 266 259 252 239 234 234 221 214 209 199 202 209 207 199 189 188
167 168 169 169 169 171 168 158 153 153 155 151 142 136 133 137 148 125 61 46 149 153 165 164 158 158 155 146 156 156 144 159 161 163 176 175 160 157 165 171 166 154 166 170 158 164 168 154 164 168 178 190 195 206 214 216 224 227 207 202 220 215 198 120 137 173 170 227 259 341 313 280 244 235 243 238 229 232 228 225 225 209 204 212 210 202 191 186
166 167 167 168 172 175 169 159 150 142 138 134 132 135 136 139 148 132 81 23 170 131 156 164 164 161 146 145 159 156 129 149 164 159 173 176 159 156 166 168 169 166 167 159 152 165 159 153 171 176 181 191 197 204 207 204 205 218 213 205 234 249 210 122 136 166 296 264 235 94 300 285 240 220 235 233 214 224 223 221 228 218 206 210 212 211 202 192
164 163 160 158 159 161 160 159 147 135 126 120 133 136 135 138 148 148 88 46 323 147 155 163 175 164 154 149 153 140 133 153 161 153 165 175 166 162 160 159 183 172 157 150 157 186 167 163 176 181 182 189 201 211 202 196 205 212 194 195 228 251 238 120 134 150 210 259 224 133 206 270 311 275 256 245 213 217 215 216 224 222 213 210 210 211 206 201
162 162 158 153 151 153 151 146 145 133 118 133 137 131 133 140 143 139 87 43 279 166 155 158 177 167 164 157 149 147 149 136 117 153 171 173 166 166 166 164 176 172 152 146 176 192 160 168 180 183 184 189 201 209 191 188 205 234 197 195 215 230 225 105 116 211 220 98 222 191 174 277 290 267 247 238 228 230 218 215 220 221 221 217 213 213 209 207
161 161 158 154 154 155 143 139 144 123 125 141 132 125 131 138 135 114 68 172 171 138 147 143 153 159 156 154 156 153 140 136 140 174 183 175 167 173 180 173 169 166 158 160 179 169 158 173 182 179 184 194 197 199 186 185 199 249 350 47 183 197 199 133 129 244 240 68 256 203 128 286 274 245 224 218 222 235 228 222 223 219 218 216 215 217 214 212
159 158 155 153 154 153 141 140 136 119 137 139 130 124 125 124 117 91 17 198 144 111 141 137 144 149 143 150 161 149 137 145 153 151 166 176 167 164 181 170 161 157 162 167 160 139 169 179 180 178 191 199 190 196 190 185 196 208 78 66 73 72 50 90 103 284 214 115 230 192 144 217 272 247 207 210 218 228 228 225 227 223 218 214 216 220 218 215
157 156 154 153 147 135 132 130 127 137 143 141 135 132 123 111 100 120 182 224 117 178 191 150 149 148 148 153 165 154 144 136 129 124 134 156 89 7 107 125 140 147 154 142 90 124 143 148 183 186 202 195 179 195 201 177 164 132 106 82 71 64 55 57 49 52 33 262 214 186 169 175 276 249 192 205 221 211 210 220 228 229 226 220 217 218 217 213
154 154 154 153 145 136 131 121 136 141 143 142 139 136 124 97 74 165 168 195 98 215 245 158 146 148 155 158 154 152 143 129 138 137 132 136 125 147 129 99 113 134 137 129 95 165 153 162 190 179 263 184 160 157 343 149 149 130 120 116 95 73 62 71 56 75 213 251 184 183 182 180 230 255 215 236 246 202 201 212 223 227 228 224 216 214 214 208
151 150 150 151 146 143 140 142 146 143 140 140 138 136 129 115 199 185 150 123 128 219 254 166 153 154 159 158 150 152 147 140 151 149 149 157 161 169 165 164 161 149 163 171 159 159 167 181 177 70 341 204 156 130 32 131 155 144 143 146 135 129 139 184 188 185 223 245 191 171 176 203 235 258 259 259 250 218 211 211 221 231 227 198 142 157 165 140
151 148 144 148 148 148 151 151 151 147 142 141 138 132 142 149 188 173 120 147 155 141 254 240 159 156 159 161 154 152 146 148 158 157 158 163 164 175 177 169 161 154 167 165 150 134 150 289 203 157 214 208 175 168 156 167 173 166 160 158 162 163 173 198 190 210 222 254 317 103 105 264 266 263 251 245 236 226 220 216 225 239 217 126 112 109 101 107
151 143 135 142 146 151 157 157 158 154 146 140 137 144 156 164 175 117 117 175 115 118 171 274 163 159 165 168 159 155 150 153 159 158 162 163 167 181 176 169 172 156 127 152 156 161 167 221 197 177 171 172 190 188 152 128 154 173 160 157 188 181 176 191 178 200 194 84 322 132 142 224 211 260 257 243 235 240 240 221 209 218 198 142 130 133 138 159
142 130 123 129 137 145 151 156 159 155 146 135 132 161 165 168 157 132 145 159 136 144 175 265 177 162 168 170 165 166 159 154 158 159 168 169 172 180 173 178 181 170 149 160 169 175 179 201 177 170 161 165 178 178 133 121 142 195 119 139 221 217 146 149 161 164 138 91 269 215 236 243 229 290 287 255 239 246 249 238 202 208 220 205 208 196 185 196
129 119 117 112 124 143 145 149 154 150 143 137 134 154 172 155 135 153 153 149 159 155 154 208 251 172 170 165 167 173 159 143 159 160 170 173 177 181 177 183 183 177 170 163 151 174 181 186 158 150 158 178 176 161 157 156 155 173 181 189 205 17 100 148 206 98 104 261 241 181 253 290 286 289 276 245 240 233 223 226 217 217 207 199 228 233 214 213
117 110 107 81 108 154 148 144 150 147 141 158 137 125 115 9 107 136 128 142 153 139 145 176 268 174 170 164 166 169 150 139 160 160 165 175 181 182 179 181 184 184 177 162 153 179 159 94 197 153 144 181 163 102 159 176 143 152 192 185 124 36 34 131 206 40 145 254 254 168 213 257 236 266 268 239 242 235 213 210 205 205 197 199 224 228 218 213
110 101 89 63 102 163 154 143 147 145 137 214 167 108 73 44 147 97 79 134 142 133 149 166 92 22 168 169 165 164 155 152 166 162 160 177 185 180 181 181 184 188 178 162 158 154 139 101 332 231 152 166 113 105 162 200 154 156 180 164 140 84 192 155 183 206 190 235 268 207 206 213 201 222 246 221 231 234 218 203 193 193 193 202 219 219 210 190
114 100 84 65 122 160 154 139 139 137 129 195 196 157 92 89 96 29 24 97 144 141 145 134 88 31 39 182 166 166 167 163 165 163 165 182 184 180 184 183 182 187 180 167 162 154 150 135 105 276 237 153 148 164 181 188 227 346 170 174 192 216 166 169 182 175 171 213 262 245 207 222 219 209 201 204 215 222 218 202 193 191 190 197 205 203 193 172
121 103 99 111 137 152 147 128 124 138 156 196 176 77 87 88 115 23 24 36 109 125 140 132 126 94 61 257 188 177 175 163 165 172 173 179 177 178 186 185 179 184 181 174 167 150 149 139 132 170 289 162 179 202 192 183 175 177 180 182 191 183 107 140 200 191 165 189 246 253 246 259 246 213 205 204 204 210 206 191 197 199 187 189 188 180 173 163
124 101 101 134 143 149 143 117 127 158 156 153 89 82 94 90 92 37 24 33 58 39 49 124 131 119 107 178 217 194 180 163 169 177 173 178 182 181 188 187 177 176 178 179 176 164 158 140 134 146 182 185 192 196 172 181 183 181 185 182 182 174 128 143 219 210 195 200 203 214 262 270 262 250 221 207 185 177 172 158 173 181 163 162 158 148 150 152
113 97 118 147 151 152 146 117 144 154 122 131 121 115 114 98 82 51 27 29 50 29 353 105 125 121 111 124 247 215 195 172 175 180 178 186 192 191 186 184 176 172 176 179 174 157 115 110 128 139 167 174 158 82 69 59 182 182 200 195 176 175 172 191 215 199 187 219 139 128 278 274 270 326 345 197 147 132 122 114 121 127 120 123 128 131 141 156
85 91 115 146 157 161 157 122 134 142 107 109 125 120 109 98 101 95 64 37 46 37 359 72 124 128 132 152 201 224 242 191 183 185 183 188 196 190 174 177 175 173 180 176 162 137 84 108 128 112 97 63 50 60 36 21 86 182 208 205 184 195 198 194 194 149 174 213 156 181 253 265 284 335 4 25 96 102 85 88 109 117 109 127 150 150 153 163
94 97 101 136 153 163 187 145 138 154 125 93 115 127 114 104 118 114 98 89 82 61 21 44 105 124 143 142 159 194 329 294 196 194 185 187 194 172 166 178 177 176 185 176 166 180 161 143 140 129 137 120 81 117 206 220 209 202 204 201 199 203 196 183 110 83 210 213 167 184 237 238 275 321 355 5 43 92 91 93 122 143 162 174 163 152 157 160
109 94 85 104 104 109 191 122 128 150 139 123 139 145 132 115 123 130 125 124 118 86 40 339 8 81 133 127 128 150 19 8 204 197 176 174 182 162 169 180 179 181 189 174 162 169 155 152 158 157 168 174 173 189 195 194 202 198 183 193 202 203 191 188 186 161 232 210 170 200 240 237 302 308 315 323 309 220 125 138 187 196 187 168 148 155 164 158
118 100 123 138 62 21 206 349 135 157 157 153 154 156 149 137 134 135 129 133 147 137 81 339 329 11 134 131 118 133 151 8 4 306 226 163 169 167 171 176 182 186 179 162 156 151 132 170 177 179 186 186 182 170 136 135 152 167 176 185 195 199 194 190 184 209 225 214 198 235 244 251 256 250 268 288 268 244 200 177 212 224 203 189 180 181 175 169
105 131 154 156 149 186 207 244 217 168 161 162 155 159 159 145 136 141 135 136 150 149 139 231 269 309 135 140 130 135 154 79 19 327 309 185 132 143 166 175 184 178 157 150 162 154 125 180 181 188 198 191 162 126 129 143 167 182 182 181 185 188 194 199 207 218 217 203 237 238 230 242 244 209 196 242 236 230 224 200 207 209 191 193 195 185 187 198
80 139 161 159 152 180 179 186 210 164 153 163 150 141 154 150 141 144 145 148 154 158 159 195 212 226 193 151 126 134 147 120 58 273 319 301 149 136 159 176 182 166 149 157 178 154 122 187 183 186 199 190 159 144 151 163 178 185 184 187 189 186 192 204 214 219 208 196 235 237 224 237 244 207 195 226 215 216 222 201 190 180 170 175 175 177 203 214
44 105 139 148 68 139 126 116 145 142 136 156 144 126 152 161 160 150 135 145 167 179 185 213 202 200 218 230 77 138 156 148 186 192 251 285 198 154 161 173 187 175 159 163 180 161 153 185 177 177 193 192 171 161 162 167 177 187 190 194 194 190 197 206 215 222 215 215 237 242 237 242 240 202 204 216 204 209 205 167 159 166 172 183 184 192 208 211
39 94 132 126 51 121 125 116 141 144 128 153 171 139 151 165 165 155 145 153 164 176 189 207 196 180 192 192 159 190 202 356 130 171 177 224 222 180 171 166 169 190 177 165 164 174 186 186 167 164 186 204 193 182 174 172 177 186 192 196 196 196 204 211 218 223 217 223 237 243 250 253 238 194 216 214 176 162 149 160 187 193 187 188 194 204 208 207
34 28 42 115 108 126 145 139 138 143 146 165 172 158 166 184 169 154 156 166 168 173 185 195 191 168 173 185 194 218 246 302 347 119 159 200 211 91 135 170 163 169 172 164 159 174 191 188 157 151 187 214 205 193 179 169 176 191 197 197 196 198 204 208 216 220 211 218 234 239 249 251 224 186 233 224 153 153 168 189 205 204 194 191 195 204 204 207
33 19 11 68 124 127 147 143 139 166 184 183 178 166 165 172 157 152 157 170 181 185 180 178 174 158 175 203 211 213 217 237 265 37 106 237 274 339 31 3 229 177 170 167 169 175 184 180 157 164 200 217 195 174 162 147 173 210 207 199 197 201 205 208 221 227 217 214 222 228 237 240 194 174 222 224 196 191 192 198 203 202 202 202 201 201 201 213